Regional Weather Roundup
Issued by NWS

Home | Current Version | Previous Version | Graphics & Text | Print | Product List | Glossary On
Versions: 1 2 3 4 5 6 7 8 9 10 11 12 13 14 15 16 17 18 19 20 21 22 23 24 25 26 27 28 29 30 31 32 33 34 35 36 37 38 39 40 41 42 43 44 45 46 47 48 49 50
000
ASUS45 KSLC 280810
RWRUT

UTAH REGIONAL WEATHER ROUNDUP
NATIONAL WEATHER SERVICE SALT LAKE CITY UT
200 AM MDT THU AUG 28 2014

UTZ001>011-023>025-280900-

NORTHERN UTAH

CITY           SKY/WX    TMP DP  RH WIND       PRES   REMARKS
HILL AFB       NOT AVBL
LOGAN          CLEAR     56  52  86 CALM      30.22R
OGDEN          CLEAR     60  49  66 S7        30.21S
PROVO AIRPORT  CLEAR     55  48  76 CALM      30.25S
SALT LAKE CITY PTCLDY    62  50  64 SE9       30.20S
VERNAL         LGT RAIN  56  53  90 CALM      30.25F
WENDOVER       CLEAR     64  45  48 CALM      30.19R
HEBER CITY     PTCLDY    45  45 100 CALM      30.31S
WEST JORDAN    CLEAR     63  57  82 S8        30.23F

$$

UTZ012>022-026-027-280900-

SOUTHERN UTAH

CITY           SKY/WX    TMP DP  RH WIND       PRES   REMARKS
BRYCE CANYON   CLEAR     42  39  89 SW6       30.41S
CEDAR CITY     CLEAR     52  44  74 CALM      30.29S
MILFORD        CLEAR     57  48  72 S5        30.25S
MOAB/CYNLANDS  MOCLDY    64  50  60 E3        30.21S
PRICE          MOCLDY    54  46  74 SE5       30.28F
ST GEORGE      SUNNY     72  46  40 CALM      30.12S

$$

REGIONAL REPORTS     COLORADO/ARIZONA

CITY           SKY/WX    TMP DP  RH WIND       PRES   REMARKS
CRAIG, CO      CLOUDY    53  50  89 W5        30.28F
GRAND JUNCTION CLOUDY    57  56  96 E3        30.24S
RIFLE          LGT RAIN  55  52  89 CALM      30.26S
MONTROSE       LGT RAIN  54  49  83 S5        30.30S
CORTEZ         CLEAR     47  46  97 NE3       30.30S
PAGE, AZ       CLEAR     72  42  34 W3        30.19S
GRAND CANYON     N/A    N/A N/A N/A MISG        N/A
KINGMAN        CLEAR     66  41  40 CALM      30.13S
FLAGSTAFF      CLEAR     50  48  93 CALM      30.38S

$$

REGIONAL REPORTS    NEVADA/IDAHO/WYOMING

CITY           SKY/WX    TMP DP  RH WIND       PRES   REMARKS
LAS VEGAS, NV  CLEAR     82  35  18 S8        29.99R
ELY            CLEAR     48  41  76 S10       30.33S
ELKO           CLEAR     53  38  56 CALM      30.22S
POCATELLO, ID  CLEAR     60  49  66 E3        30.18S
BURLEY         CLEAR     60  50  69 S10       30.14S
EVANSTON, WY   PTCLDY    47  45  93 SW9       30.35S
ROCK SPRINGS   MOCLDY    50  46  86 W10       30.28F

$$



USA.gov is the U.S. government's official web portal to all federal, state and local government web resources and services.